Weather in Ust-Unya

Russia / Komi Republic     61°48′26″N   57°52′38″E
temp.,
°C
wind,
m/s
gust,
m/s
humid.,
%
clouds,
%
prec.,
mm/h
press.,
hPa
HPBL,
m
28 february, sun
sun2800:00−24ese11900 0.0 101620
03:00−25ene11900 0.0 101720
06:00−25e11900 0.0 101720
09:00−17ene11850 0.0 1017139
12:00−11ese128023 0.0 1016426
15:00−11n118839 0.0 101636
18:00−18ne019663 0.0 101720
21:00−19se129543 0.0 101820
1 march, mon
mon100:00−21sse129211 0.0 101820
03:00−22sse12956 0.0 101820
06:00−23s22950 0.0 101820
09:00−18s24925 0.0 1017234
12:00−13ssw368877 0.0 1015502
15:00−12ssw498972 0.0 1013617
18:00−14s51292100 0.0 1009490
21:00−14s61491100 0.0 1007562
2 march, tue
tue200:00−14s61492100 0.1 1004583
03:00−14s51294100 0.8 1002587
06:00−14s51294100 0.8 999584
09:00−13s51093100 1.5 998574
12:00−12s5991100 0.4 997631
15:00−12s4893100 0.8 996635
18:00−12s4995100 0.4 996577
21:00−13s4994100 0.8 996442
3 march, wed
wed300:00−13s4995100 0.3 995385
03:00−13s4995100 0.6 995370
06:00−14s4995100 0.3 994346
09:00−12s4794100 0.9 995377
12:00−9sw3593100 0.7 994493
15:00−8wnw4694100 1.4 995529
18:00−12wnw229799 0.3 99653
21:00−12wsw129799 0.5 99722
4 march, thu
thu400:00−12w129795 0.2 99728
03:00−13wsw129794 0.4 99837
06:00−14ssw2297100 0.3 99748
09:00−11sw3594100 0.6 997329
12:00−8ssw3590100 0.2 996617
15:00−8s3689100 0.3 994709
18:00−13se3994100 0.0 992245
21:00−12se31093100 0.1 990349